Flag for Chile Weather past 2 weeks in Easter Island, Chile

Now
66 °F

Partly cloudy.


Feels Like: 66 °F
Forecast: 60 / 70 °F
Wind: 5 mph from Northwest

Location: Isla De Pascua

Current Time: Jul 25, 2014 at 9:47:14 PM

Latest Report: Jul 25, 2014 at 9:00 PM


Visibility: N/A

Pressure: 30.27 "Hg

Humidity: 88%

Dew point: 63 °F

Location of Easter IslandLocation

Historic Weather in Easter Island — Graph

°F

Easter Island temperature yesterday

Maximum temperature yesterday: 72 °F (at 12:00 PM)
Minimum temperature yesterday: 66 °F (at 4:00 AM)
Average temperature yesterday: 69 °F

Past Weeks' High & Low Weather Summary

 TemperatureHumidityPressure
High73 °F (Jul 15, 1:00 PM)94% (Jul 14, 12:00 AM)30.33 "Hg (Jul 14, 12:00 AM)
Low55 °F (Jul 19, 9:00 AM)53% (Jul 18, 1:00 PM)29.98 "Hg (Jul 17, 5:00 AM)
Average67 °F79%30.13 "Hg
* Reported Jul 10 8:00 PM — Jul 25 8:00 PM, Easter Island, Weather by CustomWeather, © 2014

Note: Actual official high and low records may vary slightly from our data, if they occured in-between our weather recording intervals... More about our weather records

Advertising

Easter Island weather history for previous 24 hours

 ConditionsComfort  
Time TempWeatherWind HumidityBarometerVisibility
8:00 PM
Jul 25
66 °FBroken clouds.5 mph88%30.27 "HgN/A
7:00 PM68 °FBroken clouds.3 mph83%30.24 "HgN/A
6:00 PM68 °FBroken clouds.6 mph83%30.24 "HgN/A
5:00 PM70 °FBroken clouds.6 mph83%30.24 "HgN/A
4:00 PM72 °FBroken clouds.7 mph78%30.24 "HgN/A
3:00 PM70 °FBroken clouds.7 mph83%30.27 "HgN/A
2:00 PM72 °FPartly sunny.7 mph78%30.27 "HgN/A
1:00 PM70 °FPartly sunny.7 mph83%30.27 "HgN/A
12:00 PM70 °FBroken clouds.7 mph83%30.30 "HgN/A
11:00 AM70 °FBroken clouds.7 mph83%30.30 "HgN/A
10:00 AM68 °FPartly cloudy.5 mph88%30.27 "HgN/A
9:00 AM66 °FPartly cloudy.5 mph88%30.27 "HgN/A
8:00 AM66 °FPassing clouds.5 mph88%30.21 "HgN/A
7:00 AM66 °FPartly cloudy.5 mph88%30.21 "HgN/A
6:00 AM66 °FPartly cloudy.5 mph88%30.21 "HgN/A
5:00 AM66 °FPartly cloudy.3 mph88%30.21 "HgN/A
4:00 AM66 °FPartly cloudy.3 mph94%30.21 "HgN/A
3:00 AM66 °FPartly cloudy.3 mph88%30.24 "HgN/A
2:00 AM66 °FPartly cloudy.5 mph94%30.24 "HgN/A
1:00 AM66 °FPartly cloudy.5 mph94%30.21 "HgN/A
12:00 AM66 °FPartly cloudy.6 mph94%30.21 "HgN/A
11:00 PM
Jul 24
68 °FPartly cloudy.6 mph88%30.21 "HgN/A
10:00 PM68 °FPartly cloudy.5 mph88%30.24 "HgN/A
9:00 PM68 °FPartly cloudy.5 mph88%30.21 "HgN/A
Weather by CustomWeather, © 2014

See weather overviewHow to use our weather pages